Regional Weather Roundup
Issued by NWS Charleston, SC

Current Version | Previous Version | Graphics & Text | Print | Product List | Glossary On
Versions: 1 2 3 4 5 6 7 8 9 10 11 12 13 14 15 16 17 18 19 20 21 22 23 24 25 26 27 28 29 30 31 32 33 34 35 36 37 38 39 40 41 42 43 44 45 46 47 48 49 50
000
ASUS42 KCHS 221212
RWRCHS

Regional Weather Roundup
National Weather Service Charleston SC
800 AM EDT SUN APR 22 2018

NOTE: "fair" indicates few or no clouds below 12,000 feet with no
significant weather and/or obstructions to visibility.

Not all stations are quality controlled. Use data with caution,
especially dewpoint observations.

SCZ027-030-031-034>040-042>050-221300-
...Southeast South Carolina...

CITY           SKY/WX    TMP DP  RH WIND       PRES   REMARKS
N Charleston   FAIR      61  56  83 E7        30.31R
6HR MIN TEMP:  56; 6HR MAX TEMP:  61;

Waterfront Prk NOT AVBL
Mount Pleasant FAIR      59  55  88 NE3       30.31R
Johns Island   FAIR      63  57  82 NE8       30.31R
Pinopolis        N/A     57  54  88 E7        30.21R
Moncks Corner  FAIR      55  50  82 E6        30.32R HAZE
Summerville    FAIR      55  54  94 CALM      30.33R
Beaufort MCAS  CLOUDY    63  58  83 E7        30.29R
6HR MIN TEMP:  62; 6HR MAX TEMP:  64;

Beaufort Arpt  PTSUNNY   63  57  82 E8        30.29R
Hilton Head Is PTSUNNY   64  59  82 NE6       30.28R
Walterboro     CLOUDY    59  54  82 E5        30.32R
Allendale      FAIR      59  54  82 VRB5      30.28S

...Southern Midlands and Pee Dee...

CITY           SKY/WX    TMP DP  RH WIND       PRES   REMARKS
Georgetown     FAIR      59  59 100 E6        30.33R
Kingstree      CLOUDY    52  50  93 CALM      30.33R
Orangeburg     CLOUDY    58  53  84 NE3       30.32R
6HR MIN TEMP:  55; 6HR MAX TEMP:  58;

Barnwell       FAIR      59  54  82 E9        30.29F
Aiken          FAIR      54  50  87 NE3       30.34R
Manning        PTSUNNY   52  45  76 E5        30.33R
Columbia       CLOUDY    57  52  83 E6        30.32R
6HR MIN TEMP:  55; 6HR MAX TEMP:  57;

Sumter         CLOUDY    54  49  84 NE5       30.32R
6HR MIN TEMP:  48; 6HR MAX TEMP:  54;

Florence       PTSUNNY   52  47  83 NE5       30.35R
6HR MIN TEMP:  46; 6HR MAX TEMP:  52;

Myrtle Beach   FAIR      60  53  77 E7        30.34R
N Myrtle Beach FAIR      56  50  80 NE5       30.33R
6HR MIN TEMP:  49; 6HR MAX TEMP:  60;


$$

GAZ063-065-086>088-099>101-113>116-118-119-134>141-150-221300-
...Southeast Georgia...

CITY           SKY/WX    TMP DP  RH WIND       PRES   REMARKS
Savannah Arpt  PTSUNNY   64  58  80 E6        30.28R
6HR MIN TEMP:  60; 6HR MAX TEMP:  64;

Hunter AAF     FAIR      66  56  71 E8        30.24R
6HR MIN TEMP:  62; 6HR MAX TEMP:  66;

Fort Stewart   CLOUDY    62  58  88 NE7       30.23R
6HR MIN TEMP:  55; 6HR MAX TEMP:  62;

Statesboro     FAIR      60  53  78 CALM      30.28R
Sylvania       FAIR      59  55  88 E5        30.29R
Claxton        PTSUNNY   60  58  91 NE5       30.26R

...CSRA, Central and far Southeast Georgia...

CITY           SKY/WX    TMP DP  RH WIND       PRES   REMARKS
Thomson        CLOUDY    57  52  82 SE5       30.34R
Augusta-Bush   CLOUDY    59  53  80 E6        30.30R
6HR MIN TEMP:  53; 6HR MAX TEMP:  61;

Augusta-Daniel PTSUNNY   60  52  74 E7        30.31R
Swainsboro     CLOUDY    59  55  88 E8        30.27R
Vidalia        CLOUDY    61  57  88 E6        30.25R
Eastman        CLOUDY    63  51  64 E7        30.26R
Hazlehurst     FAIR      61  56  83 E6        30.23R
Alma           CLOUDY    63  58  83 E5        30.23R
6HR MIN TEMP:  61; 6HR MAX TEMP:  63;

Waycross       LGT RAIN  63  60  90 E6        30.22R
Jesup          NOT AVBL
Baxley         CLOUDY    59  59 100 E7        30.24R
Brunswick      CLOUDY    63  61  94 NE5       30.24S
Saint Simons   CLOUDY    67  61  81 E8        30.23R
6HR MIN TEMP:  65; 6HR MAX TEMP:  67;


$$

SCZ027-028-034-036>038-045-046-048>050-GAZ119-141-221300-
...Lake and Supplemental Coastal Observations...

STATION/POSITION TIME  TEMP    WIND        PRES    WAVE   SWELL
                       AIR SEA DIR/SP/G            HT/PER HT/PER/DIR
                 (UTC) (F)     (DEG/KT/KT) (MB)    (FT/S) (FT/S/D)
Winyah Bay       1045   61      70/  7     1026.0
Lake Murray      1120   56      80/  3/  6 1025.7
ACE Basin NERRS  1045   61     350/  2       N/A
Fort Pulaski     1142   66 65  100/ 12/ 14 1025.0R
Sapelo Island    1100   65      90/  8     1023.0

$$

ANZ835-935-AMZ111-154-330-350-352-354-370-450-454-472-221300-
...C-MAN and Buoy Observations...

STATION/POSITION TIME  TEMP    WIND        PRES    WAVE   SWELL
                       AIR SEA DIR/SP/G            HT/PER HT/PER/DIR
                 (UTC) (F)     (DEG/KT/KT) (MB)    (FT/S) (FT/S/D)
Buoy 41004       1150   67 67  110/ 12/ 16 1026.0R   5/ 6   2/140/ 7
Buoy 41008       1150   66 64   90/ 12/ 14 1023.8R   5/ 6   3/120/ 6
Folly Beach CMAN 1100   63      50/ 13/ 15 1026.0R
Capers Nearshore 1108   63 63   60/ 12/ 14 1025.9R
Fripp Nearshore  1108   63 63   60/ 10/ 16 1024.3S


STATION/POSITION TIME  TEMP    WIND        PRES    WAVE   SWELL
                       AIR SEA DIR/SP/G            HT/PER HT/PER/DIR
                 (UTC) (F)     (DEG/KT/KT) (MB)    (FT/S) (FT/S/D)
5E St. Marys GA  1130      66                N/A     5/ 7
Frying Pan Buoy  1150   67 69   90/ 10/ 14 1027.0R   3/ 5   2/100/ 6
Buoy 41025       1150   59 74   10/ 10/ 12 1029.4R   3/ 6   2/ 60/ 6
Cape Lookout NC  1100           70/  9/  9 1028.4R
Buoy 41002       1150   66 72   60/ 16/ 19 1026.4R   3/ 9   2/110/ 9
Buoy 41010       1150   72 76   80/ 19/ 23 1022.9R   7/ 7   2/100/ 9
St Augustine FL  1200   69 67  100/ 14/ 16 1022.6R


$$




USA.gov is the U.S. government's official web portal to all federal, state and local government web resources and services.